Year,Month,Day,Hour,Minute,Value (Times are PST for temperature in C)
2015,06,28,00,00,21.10
2015,06,28,00,01,21.00
2015,06,28,00,02,21.00
2015,06,28,00,03,21.00
2015,06,28,00,04,20.90
2015,06,28,00,05,20.90
2015,06,28,00,06,20.90
2015,06,28,00,07,20.90
2015,06,28,00,08,20.80
2015,06,28,00,09,20.80
2015,06,28,00,10,20.80
2015,06,28,00,11,20.80
2015,06,28,00,12,20.70
2015,06,28,00,13,20.70
2015,06,28,00,14,20.70
2015,06,28,00,15,20.70
2015,06,28,00,16,20.70
2015,06,28,00,17,20.60
2015,06,28,00,18,20.60
2015,06,28,00,19,20.60
2015,06,28,00,20,20.50
2015,06,28,00,21,20.50
2015,06,28,00,22,20.40
2015,06,28,00,23,20.40
2015,06,28,00,24,20.40
2015,06,28,00,25,20.40
2015,06,28,00,26,20.40
2015,06,28,00,27,20.30
2015,06,28,00,28,20.30
2015,06,28,00,29,20.30
2015,06,28,00,30,20.30
2015,06,28,00,31,20.30
2015,06,28,00,32,20.30
2015,06,28,00,33,20.20
2015,06,28,00,34,20.20
2015,06,28,00,35,20.20
2015,06,28,00,36,20.20
2015,06,28,00,37,20.20
2015,06,28,00,38,20.20
2015,06,28,00,39,20.10
2015,06,28,00,40,20.10
2015,06,28,00,41,20.10
2015,06,28,00,42,20.10
2015,06,28,00,43,20.10
2015,06,28,00,44,20.10
2015,06,28,00,45,20.00
2015,06,28,00,46,20.00
2015,06,28,00,47,20.00
2015,06,28,00,48,19.90
2015,06,28,00,49,19.90
2015,06,28,00,50,19.90
2015,06,28,00,51,19.90
2015,06,28,00,52,19.90
2015,06,28,00,53,19.90
2015,06,28,00,54,19.80
2015,06,28,00,55,19.80
2015,06,28,00,56,19.80
2015,06,28,00,57,19.80
2015,06,28,00,58,19.80
2015,06,28,00,59,19.80
2015,06,28,01,00,19.80
2015,06,28,01,01,19.80
2015,06,28,01,02,19.80
2015,06,28,01,03,19.80
2015,06,28,01,04,19.70
2015,06,28,01,05,19.70
2015,06,28,01,06,19.70
2015,06,28,01,07,19.70
2015,06,28,01,08,19.70
2015,06,28,01,09,19.70
2015,06,28,01,10,19.60
2015,06,28,01,11,19.60
2015,06,28,01,12,19.60
2015,06,28,01,13,19.60
2015,06,28,01,14,19.60
2015,06,28,01,15,19.60
2015,06,28,01,16,19.60
2015,06,28,01,17,19.60
2015,06,28,01,18,19.60
2015,06,28,01,19,19.60
2015,06,28,01,20,19.60
2015,06,28,01,21,19.50
2015,06,28,01,22,19.50
2015,06,28,01,23,19.50
2015,06,28,01,24,19.50
2015,06,28,01,25,19.40
2015,06,28,01,26,19.40
2015,06,28,01,27,19.40
2015,06,28,01,28,19.40
2015,06,28,01,29,19.40
2015,06,28,01,30,19.30
2015,06,28,01,31,19.30
2015,06,28,01,32,19.30
2015,06,28,01,33,19.30
2015,06,28,01,34,19.30
2015,06,28,01,35,19.30
2015,06,28,01,36,19.30
2015,06,28,01,37,19.30
2015,06,28,01,38,19.30
2015,06,28,01,39,19.30
2015,06,28,01,40,19.20
2015,06,28,01,41,19.20
2015,06,28,01,42,19.20
2015,06,28,01,43,19.20
2015,06,28,01,44,19.20
2015,06,28,01,45,19.20
2015,06,28,01,46,19.20
2015,06,28,01,47,19.20
2015,06,28,01,48,19.20
2015,06,28,01,49,19.30
2015,06,28,01,50,19.20
2015,06,28,01,51,19.20
2015,06,28,01,52,19.20
2015,06,28,01,53,19.20
2015,06,28,01,54,19.20
2015,06,28,01,55,19.20
2015,06,28,01,56,19.20
2015,06,28,01,57,19.20
2015,06,28,01,58,19.20
2015,06,28,01,59,19.20
2015,06,28,02,00,19.20
2015,06,28,02,01,19.30
2015,06,28,02,02,19.30
2015,06,28,02,03,19.30
2015,06,28,02,04,19.30
2015,06,28,02,05,19.30
2015,06,28,02,06,19.30
2015,06,28,02,07,19.30
2015,06,28,02,08,19.30
2015,06,28,02,09,19.30
2015,06,28,02,10,19.30
2015,06,28,02,11,19.30
2015,06,28,02,12,19.30
2015,06,28,02,13,19.30
2015,06,28,02,14,19.30
2015,06,28,02,15,19.30
2015,06,28,02,16,19.30
2015,06,28,02,17,19.20
2015,06,28,02,18,19.20
2015,06,28,02,19,19.20
2015,06,28,02,20,19.20
2015,06,28,02,21,19.10
2015,06,28,02,22,19.10
2015,06,28,02,23,19.10
2015,06,28,02,24,19.10
2015,06,28,02,25,19.00
2015,06,28,02,26,19.00
2015,06,28,02,27,19.00
2015,06,28,02,28,18.90
2015,06,28,02,29,18.90
2015,06,28,02,30,18.90
2015,06,28,02,31,18.80
2015,06,28,02,32,18.80
2015,06,28,02,33,18.80
2015,06,28,02,34,18.80
2015,06,28,02,35,18.80
2015,06,28,02,36,18.80
2015,06,28,02,37,18.70
2015,06,28,02,38,18.70
2015,06,28,02,39,18.70
2015,06,28,02,40,18.70
2015,06,28,02,41,18.70
2015,06,28,02,42,18.70
2015,06,28,02,43,18.70
2015,06,28,02,44,18.60
2015,06,28,02,45,18.60
2015,06,28,02,46,18.60
2015,06,28,02,47,18.60
2015,06,28,02,48,18.60
2015,06,28,02,49,18.60
2015,06,28,02,50,18.60
2015,06,28,02,51,18.60
2015,06,28,02,52,18.60
2015,06,28,02,53,18.60
2015,06,28,02,54,18.60
2015,06,28,02,55,18.60
2015,06,28,02,56,18.60
2015,06,28,02,57,18.60
2015,06,28,02,58,18.60
2015,06,28,02,59,18.60
2015,06,28,03,00,18.60
2015,06,28,03,01,18.60
2015,06,28,03,02,18.60
2015,06,28,03,03,18.60
2015,06,28,03,04,18.50
2015,06,28,03,05,18.50
2015,06,28,03,06,18.50
2015,06,28,03,07,18.40
2015,06,28,03,08,18.40
2015,06,28,03,09,18.40
2015,06,28,03,10,18.40
2015,06,28,03,11,18.30
2015,06,28,03,12,18.30
2015,06,28,03,13,18.30
2015,06,28,03,14,18.30
2015,06,28,03,15,18.20
2015,06,28,03,16,18.20
2015,06,28,03,17,18.20
2015,06,28,03,18,18.20
2015,06,28,03,19,18.10
2015,06,28,03,20,18.10
2015,06,28,03,21,18.10
2015,06,28,03,22,18.10
2015,06,28,03,23,18.10
2015,06,28,03,24,18.00
2015,06,28,03,25,18.00
2015,06,28,03,26,18.00
2015,06,28,03,27,17.90
2015,06,28,03,28,18.00
2015,06,28,03,29,18.00
2015,06,28,03,30,18.00
2015,06,28,03,31,18.00
2015,06,28,03,32,18.00
2015,06,28,03,33,18.00
2015,06,28,03,34,18.00
2015,06,28,03,35,18.00
2015,06,28,03,36,18.00
2015,06,28,03,37,18.00
2015,06,28,03,38,18.00
2015,06,28,03,39,17.90
2015,06,28,03,40,17.90
2015,06,28,03,41,17.90
2015,06,28,03,42,17.90
2015,06,28,03,43,17.90
2015,06,28,03,44,17.90
2015,06,28,03,45,17.90
2015,06,28,03,46,17.90
2015,06,28,03,47,17.90
2015,06,28,03,48,17.90
2015,06,28,03,49,17.80
2015,06,28,03,50,17.80
2015,06,28,03,51,17.80
2015,06,28,03,52,17.80
2015,06,28,03,53,17.80
2015,06,28,03,54,17.80
2015,06,28,03,55,17.80
2015,06,28,03,56,17.80
2015,06,28,03,57,17.80
2015,06,28,03,58,17.70
2015,06,28,03,59,17.80
2015,06,28,04,00,17.70
2015,06,28,04,01,17.70
2015,06,28,04,02,17.70
2015,06,28,04,03,17.70
2015,06,28,04,04,17.70
2015,06,28,04,05,17.70
2015,06,28,04,06,17.70
2015,06,28,04,07,17.70
2015,06,28,04,08,17.70
2015,06,28,04,09,17.70
2015,06,28,04,10,17.70
2015,06,28,04,11,17.70
2015,06,28,04,12,17.70
2015,06,28,04,13,17.60
2015,06,28,04,14,17.60
2015,06,28,04,15,17.60
2015,06,28,04,16,17.50
2015,06,28,04,17,17.50
2015,06,28,04,18,17.50
2015,06,28,04,19,17.50
2015,06,28,04,20,17.40
2015,06,28,04,21,17.40
2015,06,28,04,22,17.40
2015,06,28,04,23,17.40
2015,06,28,04,24,17.40
2015,06,28,04,25,17.40
2015,06,28,04,26,17.40
2015,06,28,04,27,17.40
2015,06,28,04,28,17.40
2015,06,28,04,29,17.40
2015,06,28,04,30,17.40
2015,06,28,04,31,17.40
2015,06,28,04,32,17.30
2015,06,28,04,33,17.30
2015,06,28,04,34,17.30
2015,06,28,04,35,17.30
2015,06,28,04,36,17.30
2015,06,28,04,37,17.30
2015,06,28,04,38,17.30
2015,06,28,04,39,17.30
2015,06,28,04,40,17.30
2015,06,28,04,41,17.30
2015,06,28,04,42,17.30
2015,06,28,04,43,17.30
2015,06,28,04,44,17.30
2015,06,28,04,45,17.30
2015,06,28,04,46,17.20
2015,06,28,04,47,17.20
2015,06,28,04,48,17.20
2015,06,28,04,49,17.20
2015,06,28,04,50,17.20
2015,06,28,04,51,17.20
2015,06,28,04,52,17.20
2015,06,28,04,53,17.20
2015,06,28,04,54,17.20
2015,06,28,04,55,17.20
2015,06,28,04,56,17.20
2015,06,28,04,57,17.20
2015,06,28,04,58,17.20
2015,06,28,04,59,17.10
2015,06,28,05,00,17.10
2015,06,28,05,01,17.10
2015,06,28,05,02,17.10
2015,06,28,05,03,17.10
2015,06,28,05,04,17.10
2015,06,28,05,05,17.10
2015,06,28,05,06,17.10
2015,06,28,05,07,17.00
2015,06,28,05,08,17.00
2015,06,28,05,09,17.00
2015,06,28,05,10,17.00
2015,06,28,05,11,17.00
2015,06,28,05,12,17.00
2015,06,28,05,13,17.00
2015,06,28,05,14,17.00
2015,06,28,05,15,17.00
2015,06,28,05,16,17.00
2015,06,28,05,17,17.00
2015,06,28,05,18,17.10
2015,06,28,05,19,17.10
2015,06,28,05,20,17.10
2015,06,28,05,21,17.10
2015,06,28,05,22,17.10
2015,06,28,05,23,17.10
2015,06,28,05,24,17.10
2015,06,28,05,25,17.10
2015,06,28,05,26,17.00
2015,06,28,05,27,17.00
2015,06,28,05,28,17.00
2015,06,28,05,29,17.00
2015,06,28,05,30,17.00
2015,06,28,05,31,17.00
2015,06,28,05,32,16.90
2015,06,28,05,33,16.90
2015,06,28,05,34,16.90
2015,06,28,05,35,16.90
2015,06,28,05,36,16.90
2015,06,28,05,37,16.90
2015,06,28,05,38,16.90
2015,06,28,05,39,16.90
2015,06,28,05,40,17.00
2015,06,28,05,41,17.00
2015,06,28,05,42,17.00
2015,06,28,05,43,17.00
2015,06,28,05,44,17.00
2015,06,28,05,45,17.00
2015,06,28,05,46,17.00
2015,06,28,05,47,17.00
2015,06,28,05,48,17.00
2015,06,28,05,49,17.00
2015,06,28,05,50,17.10
2015,06,28,05,51,17.10
2015,06,28,05,52,17.10
2015,06,28,05,53,17.10
2015,06,28,05,54,17.10
2015,06,28,05,55,17.10
2015,06,28,05,56,17.10
2015,06,28,05,57,17.10
2015,06,28,05,58,17.10
2015,06,28,05,59,17.10
2015,06,28,06,00,17.10
2015,06,28,06,01,17.10
2015,06,28,06,02,17.00
2015,06,28,06,03,17.00
2015,06,28,06,04,17.00
2015,06,28,06,05,17.00
2015,06,28,06,06,17.00
2015,06,28,06,07,17.00
2015,06,28,06,08,17.00
2015,06,28,06,09,17.10
2015,06,28,06,10,17.10
2015,06,28,06,11,17.10
2015,06,28,06,12,17.20
2015,06,28,06,13,17.20
2015,06,28,06,14,17.20
2015,06,28,06,15,17.30
2015,06,28,06,16,17.30
2015,06,28,06,17,17.30
2015,06,28,06,18,17.30
2015,06,28,06,19,17.40
2015,06,28,06,20,17.40
2015,06,28,06,21,17.40
2015,06,28,06,22,17.40
2015,06,28,06,23,17.40
2015,06,28,06,24,17.50
2015,06,28,06,25,17.50
2015,06,28,06,26,17.60
2015,06,28,06,27,17.60
2015,06,28,06,28,17.60
2015,06,28,06,29,17.70
2015,06,28,06,30,17.70
2015,06,28,06,31,17.70
2015,06,28,06,32,17.80
2015,06,28,06,33,17.80
2015,06,28,06,34,17.80
2015,06,28,06,35,17.90
2015,06,28,06,36,17.90
2015,06,28,06,37,18.00
2015,06,28,06,38,18.00
2015,06,28,06,39,18.10
2015,06,28,06,40,18.10
2015,06,28,06,41,18.20
2015,06,28,06,42,18.20
2015,06,28,06,43,18.30
2015,06,28,06,44,18.40
2015,06,28,06,45,18.60
2015,06,28,06,46,18.70
2015,06,28,06,47,18.80
2015,06,28,06,48,18.90
2015,06,28,06,49,19.00
2015,06,28,06,50,19.10
2015,06,28,06,51,19.20
2015,06,28,06,52,19.30
2015,06,28,06,53,19.50
2015,06,28,06,54,19.50
2015,06,28,06,55,19.60
2015,06,28,06,56,19.60
2015,06,28,06,57,19.60
2015,06,28,06,58,19.70
2015,06,28,06,59,19.60
2015,06,28,07,00,19.60
2015,06,28,07,01,19.60
2015,06,28,07,02,19.60
2015,06,28,07,03,19.50
2015,06,28,07,04,19.50
2015,06,28,07,05,19.50
2015,06,28,07,06,19.50
2015,06,28,07,07,19.50
2015,06,28,07,08,19.60
2015,06,28,07,09,19.60
2015,06,28,07,10,19.60
2015,06,28,07,11,19.70
2015,06,28,07,12,19.80
2015,06,28,07,13,19.80
2015,06,28,07,14,19.80
2015,06,28,07,15,19.90
2015,06,28,07,16,19.90
2015,06,28,07,17,19.90
2015,06,28,07,18,20.00
2015,06,28,07,19,20.00
2015,06,28,07,20,20.10
2015,06,28,07,21,20.10
2015,06,28,07,22,20.20
2015,06,28,07,23,20.20
2015,06,28,07,24,20.20
2015,06,28,07,25,20.20
2015,06,28,07,26,20.30
2015,06,28,07,27,20.30
2015,06,28,07,28,20.40
2015,06,28,07,29,20.50
2015,06,28,07,30,20.50
2015,06,28,07,31,20.60
2015,06,28,07,32,20.60
2015,06,28,07,33,20.70
2015,06,28,07,34,20.70
2015,06,28,07,35,20.70
2015,06,28,07,36,20.70
2015,06,28,07,37,20.80
2015,06,28,07,38,20.80
2015,06,28,07,39,20.80
2015,06,28,07,40,20.80
2015,06,28,07,41,20.80
2015,06,28,07,42,20.90
2015,06,28,07,43,20.90
2015,06,28,07,44,21.00
2015,06,28,07,45,21.00
2015,06,28,07,46,21.10
2015,06,28,07,47,21.20
2015,06,28,07,48,21.30
2015,06,28,07,49,21.30
2015,06,28,07,50,21.40
2015,06,28,07,51,21.50
2015,06,28,07,52,21.60
2015,06,28,07,53,21.70
2015,06,28,07,54,21.80
2015,06,28,07,55,21.90
2015,06,28,07,56,22.10
2015,06,28,07,57,22.20
2015,06,28,07,58,22.40
2015,06,28,07,59,22.50
2015,06,28,08,00,22.60
2015,06,28,08,01,22.70
2015,06,28,08,02,22.80
2015,06,28,08,03,23.00
2015,06,28,08,04,23.10
2015,06,28,08,05,23.20
2015,06,28,08,06,23.30
2015,06,28,08,07,23.40
2015,06,28,08,08,23.50
2015,06,28,08,09,23.60
2015,06,28,08,10,23.70
2015,06,28,08,11,23.80
2015,06,28,08,12,23.90
2015,06,28,08,13,24.00
2015,06,28,08,14,24.10
2015,06,28,08,15,24.20
2015,06,28,08,16,24.30
2015,06,28,08,17,24.40
2015,06,28,08,18,24.50
2015,06,28,08,19,24.60
2015,06,28,08,20,24.70
2015,06,28,08,21,24.80
2015,06,28,08,22,24.90
2015,06,28,08,23,24.90
2015,06,28,08,24,25.00
2015,06,28,08,25,25.00
2015,06,28,08,26,25.00
2015,06,28,08,27,25.00
2015,06,28,08,28,24.90
2015,06,28,08,29,25.00
2015,06,28,08,30,25.10
2015,06,28,08,31,25.20
2015,06,28,08,32,25.30
2015,06,28,08,33,25.40
2015,06,28,08,34,25.60
2015,06,28,08,35,25.70
2015,06,28,08,36,25.80
2015,06,28,08,37,25.90
2015,06,28,08,38,26.00
2015,06,28,08,39,26.00
2015,06,28,08,40,26.00
2015,06,28,08,41,26.00
2015,06,28,08,42,26.00
2015,06,28,08,43,26.10
2015,06,28,08,44,26.10
2015,06,28,08,45,26.20
2015,06,28,08,46,26.30
2015,06,28,08,47,26.50
2015,06,28,08,48,26.70
2015,06,28,08,49,26.80
2015,06,28,08,50,26.90
2015,06,28,08,51,27.00
2015,06,28,08,52,27.10
2015,06,28,08,53,27.20
2015,06,28,08,54,27.20
2015,06,28,08,55,27.20
2015,06,28,08,56,27.20
2015,06,28,08,57,27.10
2015,06,28,08,58,27.00
2015,06,28,08,59,26.90
2015,06,28,09,00,26.80
2015,06,28,09,01,26.60
2015,06,28,09,02,26.50
2015,06,28,09,03,26.40
2015,06,28,09,04,26.30
2015,06,28,09,05,26.20
2015,06,28,09,06,26.10
2015,06,28,09,07,26.00
2015,06,28,09,08,25.90
2015,06,28,09,09,25.80
2015,06,28,09,10,25.80
2015,06,28,09,11,25.80
2015,06,28,09,12,25.80
2015,06,28,09,13,25.90
2015,06,28,09,14,26.00
2015,06,28,09,15,26.00
2015,06,28,09,16,26.10
2015,06,28,09,17,26.10
2015,06,28,09,18,26.10
2015,06,28,09,19,26.10
2015,06,28,09,20,26.00
2015,06,28,09,21,26.00
2015,06,28,09,22,25.90
2015,06,28,09,23,25.90
2015,06,28,09,24,25.80
2015,06,28,09,25,25.80
2015,06,28,09,26,25.70
2015,06,28,09,27,25.60
2015,06,28,09,28,25.60
2015,06,28,09,29,25.60
2015,06,28,09,30,25.50
2015,06,28,09,31,25.40
2015,06,28,09,32,25.40
2015,06,28,09,33,25.40
2015,06,28,09,34,25.30
2015,06,28,09,35,25.30
2015,06,28,09,36,25.30
2015,06,28,09,37,25.30
2015,06,28,09,38,25.30
2015,06,28,09,39,25.30
2015,06,28,09,40,25.30
2015,06,28,09,41,25.30
2015,06,28,09,42,25.30
2015,06,28,09,43,25.40
2015,06,28,09,44,25.40
2015,06,28,09,45,25.40
2015,06,28,09,46,25.40
2015,06,28,09,47,25.40
2015,06,28,09,48,25.50
2015,06,28,09,49,25.50
2015,06,28,09,50,25.50
2015,06,28,09,51,25.60
2015,06,28,09,52,25.60
2015,06,28,09,53,25.60
2015,06,28,09,54,25.70
2015,06,28,09,55,25.80
2015,06,28,09,56,25.80
2015,06,28,09,57,25.80
2015,06,28,09,58,25.90
2015,06,28,09,59,26.00
2015,06,28,10,00,26.10
2015,06,28,10,01,26.20
2015,06,28,10,02,26.30
2015,06,28,10,03,26.40
2015,06,28,10,04,26.40
2015,06,28,10,05,26.40
2015,06,28,10,06,26.40
2015,06,28,10,07,26.50
2015,06,28,10,08,26.60
2015,06,28,10,09,26.60
2015,06,28,10,10,26.70
2015,06,28,10,11,26.80
2015,06,28,10,12,27.00
2015,06,28,10,13,27.10
2015,06,28,10,14,27.20
2015,06,28,10,15,27.30
2015,06,28,10,16,27.30
2015,06,28,10,17,27.40
2015,06,28,10,18,27.50
2015,06,28,10,19,27.60
2015,06,28,10,20,27.60
2015,06,28,10,21,27.80
2015,06,28,10,22,27.90
2015,06,28,10,23,28.10
2015,06,28,10,24,28.20
2015,06,28,10,25,28.20
2015,06,28,10,26,28.30
2015,06,28,10,27,28.40
2015,06,28,10,28,28.50
2015,06,28,10,29,28.60
2015,06,28,10,30,28.70
2015,06,28,10,31,28.70
2015,06,28,10,32,28.70
2015,06,28,10,33,28.80
2015,06,28,10,34,28.80
2015,06,28,10,35,28.90
2015,06,28,10,36,29.00
2015,06,28,10,37,29.10
2015,06,28,10,38,29.20
2015,06,28,10,39,29.10
2015,06,28,10,40,29.00
2015,06,28,10,41,28.80
2015,06,28,10,42,28.70
2015,06,28,10,43,28.50
2015,06,28,10,44,28.40
2015,06,28,10,45,28.40
2015,06,28,10,46,28.30
2015,06,28,10,47,28.20
2015,06,28,10,48,28.20
2015,06,28,10,49,28.20
2015,06,28,10,50,28.10
2015,06,28,10,51,28.10
2015,06,28,10,52,28.10
2015,06,28,10,53,28.10
2015,06,28,10,54,28.00
2015,06,28,10,55,27.90
2015,06,28,10,56,27.80
2015,06,28,10,57,27.80
2015,06,28,10,58,27.70
2015,06,28,10,59,27.70
2015,06,28,11,00,27.60
2015,06,28,11,01,27.60
2015,06,28,11,02,27.60
2015,06,28,11,03,27.60
2015,06,28,11,04,27.60
2015,06,28,11,05,27.60
2015,06,28,11,06,27.50
2015,06,28,11,07,27.50
2015,06,28,11,08,27.40
2015,06,28,11,09,27.40
2015,06,28,11,10,27.40
2015,06,28,11,11,27.40
2015,06,28,11,12,27.40
2015,06,28,11,13,27.30
2015,06,28,11,14,27.20
2015,06,28,11,15,27.10
2015,06,28,11,16,27.10
2015,06,28,11,17,27.00
2015,06,28,11,18,27.00
2015,06,28,11,19,27.00
2015,06,28,11,20,26.90
2015,06,28,11,21,26.90
2015,06,28,11,22,26.90
2015,06,28,11,23,26.90
2015,06,28,11,24,26.90
2015,06,28,11,25,26.90
2015,06,28,11,26,26.90
2015,06,28,11,27,26.80
2015,06,28,11,28,26.70
2015,06,28,11,29,26.70
2015,06,28,11,30,26.60
2015,06,28,11,31,26.50
2015,06,28,11,32,26.40
2015,06,28,11,33,26.30
2015,06,28,11,34,26.20
2015,06,28,11,35,26.10
2015,06,28,11,36,26.10
2015,06,28,11,37,26.10
2015,06,28,11,38,26.00
2015,06,28,11,39,26.00
2015,06,28,11,40,25.90
2015,06,28,11,41,25.90
2015,06,28,11,42,25.90
2015,06,28,11,43,25.90
2015,06,28,11,44,25.90
2015,06,28,11,45,25.80
2015,06,28,11,46,25.80
2015,06,28,11,47,25.80
2015,06,28,11,48,25.80
2015,06,28,11,49,25.80
2015,06,28,11,50,25.80
2015,06,28,11,51,25.70
2015,06,28,11,52,25.70
2015,06,28,11,53,25.70
2015,06,28,11,54,25.70
2015,06,28,11,55,25.70
2015,06,28,11,56,25.70
2015,06,28,11,57,25.70
2015,06,28,11,58,25.70
2015,06,28,11,59,25.70
2015,06,28,12,00,25.70
2015,06,28,12,01,25.60
2015,06,28,12,02,25.60
2015,06,28,12,03,25.60
2015,06,28,12,04,25.60
2015,06,28,12,05,25.60
2015,06,28,12,06,25.60
2015,06,28,12,07,25.60
2015,06,28,12,08,25.70
2015,06,28,12,09,25.70
2015,06,28,12,10,25.70
2015,06,28,12,11,25.60
2015,06,28,12,12,25.70
2015,06,28,12,13,25.70
2015,06,28,12,14,25.70
2015,06,28,12,15,25.70
2015,06,28,12,16,25.70
2015,06,28,12,17,25.70
2015,06,28,12,18,25.70
2015,06,28,12,19,25.70
2015,06,28,12,20,25.70
2015,06,28,12,21,25.70
2015,06,28,12,22,25.80
2015,06,28,12,23,25.80
2015,06,28,12,24,25.80
2015,06,28,12,25,25.80
2015,06,28,12,26,25.80
2015,06,28,12,27,25.80
2015,06,28,12,28,25.80
2015,06,28,12,29,25.80
2015,06,28,12,30,25.80
2015,06,28,12,31,25.80
2015,06,28,12,32,25.80
2015,06,28,12,33,25.80
2015,06,28,12,34,25.80
2015,06,28,12,35,25.80
2015,06,28,12,36,25.80
2015,06,28,12,37,25.90
2015,06,28,12,38,25.90
2015,06,28,12,39,25.90
2015,06,28,12,40,25.90
2015,06,28,12,41,26.00
2015,06,28,12,42,26.00
2015,06,28,12,43,26.00
2015,06,28,12,44,26.10
2015,06,28,12,45,26.10
2015,06,28,12,46,26.10
2015,06,28,12,47,26.10
2015,06,28,12,48,26.00
2015,06,28,12,49,26.00
2015,06,28,12,50,26.00
2015,06,28,12,51,26.00
2015,06,28,12,52,26.00
2015,06,28,12,53,26.10
2015,06,28,12,54,26.10
2015,06,28,12,55,26.10
2015,06,28,12,56,26.10
2015,06,28,12,57,26.00
2015,06,28,12,58,26.00
2015,06,28,12,59,26.00
2015,06,28,13,00,25.90
2015,06,28,13,01,25.90
2015,06,28,13,02,25.90
2015,06,28,13,03,25.90
2015,06,28,13,04,26.00
2015,06,28,13,05,26.00
2015,06,28,13,06,26.10
2015,06,28,13,07,26.10
2015,06,28,13,08,26.20
2015,06,28,13,09,26.20
2015,06,28,13,10,26.20
2015,06,28,13,11,26.20
2015,06,28,13,12,26.20
2015,06,28,13,13,26.20
2015,06,28,13,14,26.20
2015,06,28,13,15,26.20
2015,06,28,13,16,26.10
2015,06,28,13,17,26.10
2015,06,28,13,18,26.10
2015,06,28,13,19,26.10
2015,06,28,13,20,26.00
2015,06,28,13,21,26.00
2015,06,28,13,22,26.00
2015,06,28,13,23,25.90
2015,06,28,13,24,25.90
2015,06,28,13,25,25.80
2015,06,28,13,26,25.80
2015,06,28,13,27,25.80
2015,06,28,13,28,25.80
2015,06,28,13,29,25.80
2015,06,28,13,30,25.80
2015,06,28,13,31,25.80
2015,06,28,13,32,25.80
2015,06,28,13,33,25.80
2015,06,28,13,34,25.80
2015,06,28,13,35,25.90
2015,06,28,13,36,25.90
2015,06,28,13,37,26.00
2015,06,28,13,38,26.10
2015,06,28,13,39,26.10
2015,06,28,13,40,26.20
2015,06,28,13,41,26.20
2015,06,28,13,42,26.20
2015,06,28,13,43,26.20
2015,06,28,13,44,26.30
2015,06,28,13,45,26.30
2015,06,28,13,46,26.30
2015,06,28,13,47,26.40
2015,06,28,13,48,26.40
2015,06,28,13,49,26.40
2015,06,28,13,50,26.50
2015,06,28,13,51,26.50
2015,06,28,13,52,26.50
2015,06,28,13,53,26.50
2015,06,28,13,54,26.50
2015,06,28,13,55,26.50
2015,06,28,13,56,26.40
2015,06,28,13,57,26.40
2015,06,28,13,58,26.40
2015,06,28,13,59,26.40
2015,06,28,14,00,26.40
2015,06,28,14,01,26.40
2015,06,28,14,02,26.40
2015,06,28,14,03,26.30
2015,06,28,14,04,26.30
2015,06,28,14,05,26.40
2015,06,28,14,06,26.40
2015,06,28,14,07,26.40
2015,06,28,14,08,26.50
2015,06,28,14,09,26.50
2015,06,28,14,10,26.60
2015,06,28,14,11,26.70
2015,06,28,14,12,26.70
2015,06,28,14,13,26.70
2015,06,28,14,14,26.70
2015,06,28,14,15,26.70
2015,06,28,14,16,26.70
2015,06,28,14,17,26.70
2015,06,28,14,18,26.70
2015,06,28,14,19,26.70
2015,06,28,14,20,26.70
2015,06,28,14,21,26.70
2015,06,28,14,22,26.70
2015,06,28,14,23,26.70
2015,06,28,14,24,26.60
2015,06,28,14,25,26.60
2015,06,28,14,26,26.60
2015,06,28,14,27,26.60
2015,06,28,14,28,26.50
2015,06,28,14,29,26.50
2015,06,28,14,30,26.50
2015,06,28,14,31,26.50
2015,06,28,14,32,26.50
2015,06,28,14,33,26.50
2015,06,28,14,34,26.50
2015,06,28,14,35,26.50
2015,06,28,14,36,26.50
2015,06,28,14,37,26.50
2015,06,28,14,38,26.50
2015,06,28,14,39,26.50
2015,06,28,14,40,26.50
2015,06,28,14,41,26.50
2015,06,28,14,42,26.50
2015,06,28,14,43,26.50
2015,06,28,14,44,26.40
2015,06,28,14,45,26.40
2015,06,28,14,46,26.40
2015,06,28,14,47,26.40
2015,06,28,14,48,26.40
2015,06,28,14,49,26.40
2015,06,28,14,50,26.40
2015,06,28,14,51,26.40
2015,06,28,14,52,26.40
2015,06,28,14,53,26.30
2015,06,28,14,54,26.30
2015,06,28,14,55,26.30
2015,06,28,14,56,26.30
2015,06,28,14,57,26.30
2015,06,28,14,58,26.30
2015,06,28,14,59,26.20
2015,06,28,15,00,26.20
2015,06,28,15,01,26.20
2015,06,28,15,02,26.20
2015,06,28,15,03,26.20
2015,06,28,15,04,26.20
2015,06,28,15,05,26.20
2015,06,28,15,06,26.20
2015,06,28,15,07,26.30
2015,06,28,15,08,26.30
2015,06,28,15,09,26.30
2015,06,28,15,10,26.30
2015,06,28,15,11,26.30
2015,06,28,15,12,26.30
2015,06,28,15,13,26.30
2015,06,28,15,14,26.20
2015,06,28,15,15,26.10
2015,06,28,15,16,26.00
2015,06,28,15,17,25.90
2015,06,28,15,18,25.80
2015,06,28,15,19,25.70
2015,06,28,15,20,25.70
2015,06,28,15,21,25.60
2015,06,28,15,22,25.60
2015,06,28,15,23,25.60
2015,06,28,15,24,25.60
2015,06,28,15,25,25.60
2015,06,28,15,26,25.60
2015,06,28,15,27,25.60
2015,06,28,15,28,25.60
2015,06,28,15,29,25.60
2015,06,28,15,30,25.60
2015,06,28,15,31,25.60
2015,06,28,15,32,25.60
2015,06,28,15,33,25.60
2015,06,28,15,34,25.60
2015,06,28,15,35,25.50
2015,06,28,15,36,25.40
2015,06,28,15,37,25.30
2015,06,28,15,38,25.30
2015,06,28,15,39,25.20
2015,06,28,15,40,25.20
2015,06,28,15,41,25.10
2015,06,28,15,42,25.00
2015,06,28,15,43,25.00
2015,06,28,15,44,24.90
2015,06,28,15,45,24.90
2015,06,28,15,46,24.80
2015,06,28,15,47,24.80
2015,06,28,15,48,24.80
2015,06,28,15,49,24.80
2015,06,28,15,50,24.80
2015,06,28,15,51,24.70
2015,06,28,15,52,24.70
2015,06,28,15,53,24.70
2015,06,28,15,54,24.80
2015,06,28,15,55,24.80
2015,06,28,15,56,24.80
2015,06,28,15,57,24.90
2015,06,28,15,58,24.90
2015,06,28,15,59,24.90
2015,06,28,16,00,24.90
2015,06,28,16,01,24.90
2015,06,28,16,02,24.90
2015,06,28,16,03,24.80
2015,06,28,16,04,24.70
2015,06,28,16,05,24.70
2015,06,28,16,06,24.70
2015,06,28,16,07,24.60
2015,06,28,16,08,24.60
2015,06,28,16,09,24.60
2015,06,28,16,10,24.60
2015,06,28,16,11,24.60
2015,06,28,16,12,24.60
2015,06,28,16,13,24.60
2015,06,28,16,14,24.60
2015,06,28,16,15,24.60
2015,06,28,16,16,24.60
2015,06,28,16,17,24.60
2015,06,28,16,18,24.50
2015,06,28,16,19,24.50
2015,06,28,16,20,24.50
2015,06,28,16,21,24.50
2015,06,28,16,22,24.40
2015,06,28,16,23,24.40
2015,06,28,16,24,24.30
2015,06,28,16,25,24.30
2015,06,28,16,26,24.20
2015,06,28,16,27,24.10
2015,06,28,16,28,24.00
2015,06,28,16,29,24.00
2015,06,28,16,30,24.00
2015,06,28,16,31,23.90
2015,06,28,16,32,23.90
2015,06,28,16,33,24.00
2015,06,28,16,34,24.00
2015,06,28,16,35,24.00
2015,06,28,16,36,24.10
2015,06,28,16,37,24.10
2015,06,28,16,38,24.10
2015,06,28,16,39,24.10
2015,06,28,16,40,24.20
2015,06,28,16,41,24.20
2015,06,28,16,42,24.10
2015,06,28,16,43,24.10
2015,06,28,16,44,24.20
2015,06,28,16,45,24.20
2015,06,28,16,46,24.20
2015,06,28,16,47,24.20
2015,06,28,16,48,24.20
2015,06,28,16,49,24.20
2015,06,28,16,50,24.20
2015,06,28,16,51,24.20
2015,06,28,16,52,24.20
2015,06,28,16,53,24.20
2015,06,28,16,54,24.20
2015,06,28,16,55,24.20
2015,06,28,16,56,24.20
2015,06,28,16,57,24.20
2015,06,28,16,58,24.20
2015,06,28,16,59,24.20
2015,06,28,17,00,24.20
2015,06,28,17,01,24.20
2015,06,28,17,02,24.20
2015,06,28,17,03,24.10
2015,06,28,17,04,24.10
2015,06,28,17,05,24.10
2015,06,28,17,06,24.10
2015,06,28,17,07,24.10
2015,06,28,17,08,24.10
2015,06,28,17,09,24.10
2015,06,28,17,10,24.10
2015,06,28,17,11,24.20
2015,06,28,17,12,24.20
2015,06,28,17,13,24.20
2015,06,28,17,14,24.20
2015,06,28,17,15,24.20
2015,06,28,17,16,24.30
2015,06,28,17,17,24.30
2015,06,28,17,18,24.30
2015,06,28,17,19,24.30